Date,TemperatureHighF,TemperatureAvgF,TemperatureLowF,DewpointHighF,DewpointAvgF,DewpointLowF,HumidityHigh,HumidityAvg,HumidityLow,PressureMaxIn,PressureMinIn,WindSpeedMaxMPH,WindSpeedAvgMPH,GustSpeedMaxMPH,PrecipitationSumIn
2013-10-1,95.2,78.9,63.1,78.1,66.2,57.7,95,68,39,29.12,29.00,6,2,11,0.00
2013-10-2,96.3,83.1,75.2,76.9,71.0,64.3,93,70,41,29.15,29.03,7,3,11,0.00
2013-10-3,96.1,84.2,75.4,74.4,69.7,64.3,91,65,39,29.15,29.00,8,3,13,0.00
2013-10-4,96.1,83.2,75.0,72.8,68.6,64.5,85,65,39,29.12,29.00,9,3,14,0.00
2013-10-5,97.3,78.5,65.1,74.8,62.1,41.0,88,60,36,29.33,29.06,6,2,10,0.00
2013-10-6,89.8,77.1,55.2,55.4,37.0,-10.0,49,27,3,29.39,29.24,4,1,8,0.00
2013-10-7,94.1,68.4,47.1,53.1,43.6,36.1,77,46,17,29.39,29.24,4,1,7,0.00
2013-10-8,92.8,70.6,48.6,60.8,48.3,42.2,82,50,25,29.33,29.15,6,2,10,0.00
2013-10-9,88.7,72.3,52.7,64.8,54.1,45.5,88,56,33,29.30,29.12,7,2,15,0.00
2013-10-10,88.7,76.2,65.3,68.5,63.3,59.5,93,67,41,29.24,29.06,8,3,13,0.00
2013-10-11,90.9,79.9,72.7,74.3,69.6,64.7,88,73,48,29.15,29.00,8,2,10,0.00
2013-10-12,95.5,82.8,74.1,78.7,72.1,67.2,95,73,42,29.21,29.09,7,2,9,0.04
2013-10-13,74.8,70.8,66.7,72.5,69.4,65.7,98,95,87,29.42,29.21,8,2,12,1.19
2013-10-14,83.1,75.5,71.4,76.1,72.2,70.0,98,90,66,29.33,29.12,6,2,8,0.10
2013-10-15,81.3,72.5,57.6,73.9,67.2,54.0,92,84,68,29.27,29.09,5,1,9,0.00
2013-10-16,63.0,57.7,53.4,60.0,56.2,52.9,98,95,89,29.36,29.21,3,0,6,1.27
2013-10-17,79.2,64.7,49.5,61.2,51.5,46.4,97,67,38,29.39,29.18,4,1,6,0.00
2013-10-18,72.3,65.5,57.6,64.0,58.3,49.7,88,78,69,29.27,29.09,5,2,8,0.00
2013-10-19,74.7,59.5,46.8,52.8,43.6,37.1,84,59,33,29.47,29.27,5,1,8,0.00
2013-10-20,78.4,60.9,42.8,54.1,46.6,39.2,95,63,38,29.33,29.12,1,0,2,0.00
2013-10-21,85.1,69.1,61.0,68.6,58.8,51.6,91,71,54,29.33,29.12,0,0,0,0.00
2013-10-22,84.7,66.9,51.1,53.5,47.3,40.8,81,54,27,29.42,29.30,0,0,0,0.00
2013-10-23,83.8,80.2,62.8,46.6,45.4,42.2,47,30,26,29.36,29.30,0,0,0,0.00
2013-10-24,82.2,75.2,64.8,49.2,48.4,45.0,55,40,30,29.42,29.36,3,1,4,0.00
2013-10-25,78.1,76.3,64.8,59.5,57.0,48.2,55,51,48,29.44,29.42,5,3,8,0.00
2013-10-27,77.4,67.8,64.8,64.8,62.5,58.9,94,84,53,29.42,29.27,2,1,4,0.00
2013-10-28,80.6,75.7,68.7,68.9,66.9,64.8,96,75,62,29.30,29.18,6,3,9,0.00
2013-10-29,81.7,80.4,75.4,68.8,67.7,66.8,80,66,63,29.24,29.18,5,3,8,0.00